Location: Unspecified
(0.0000°N, 0.0000°E)
Time: 23:03:56
(UTC+00:00)

STARLINK-1031 - Pass Details

Date: 17 January 2020
Orbit: 553 x 555 km, 53.0° (Epoch: 30 March)

Event Time Altitude Azimuth Distance (km) Brightness Sun altitude
Rises 04:54:42 0° 206° (SSW) 2,736 7.1 -17.5°
Reaches altitude 10° 04:56:59 10° 202° (SSW) 1,840 6.3 -17.0°
Maximum altitude 05:01:05 54° 124° (SE) 677 4.4 -16.0°
Drops below altitude 10° 05:05:10 10° 46° (NE) 1,836 6.6 -15.1°
Sets 05:07:26 0° 42° (NE) 2,729 7.4 -14.6°
